• In Lithuania
  • List of Countries
  • For 7 days
  • Water Temperature
  • Satellite Maps
  • Weather Map
  • Weather Widgets
  • user-avatar
    Login

    Hourly Weather Solomenskoe

    Today, 17 August, Friday

    Time Temperature Precipitation Wind Pressure Humidity
    00:00 +23°C° 0 mm 4 mps 746 mmHg 61%
    01:00 +22°C° 0 mm 3 mps 746 mmHg 64%
    02:00 +22°C° 0 mm 3 mps 746 mmHg 68%
    03:00 +21°C° 0 mm 2 mps 746 mmHg 71%
    04:00 +21°C° 0 mm 2 mps 746 mmHg 72%
    05:00 +21°C° 0 mm 2 mps 746 mmHg 74%
    06:00 +21°C° 0 mm 2 mps 746 mmHg 75%
    07:00 +24°C° 0 mm 2 mps 746 mmHg 68%
    08:00 +26°C° 0 mm 3 mps 746 mmHg 60%
    09:00 +28°C° 0 mm 3 mps 746 mmHg 53%
    10:00 +29°C° 0 mm 3 mps 746 mmHg 48%
    11:00 +32°C° 0 mm 4 mps 745 mmHg 42%
    12:00 +33°C° 0 mm 4 mps 745 mmHg 37%
    13:00 +34°C° 0 mm 4 mps 745 mmHg 35%
    14:00 +34°C° 0 mm 4 mps 745 mmHg 33%
    15:00 +35°C° 0 mm 4 mps 744 mmHg 31%
    16:00 +34°C° 0 mm 3 mps 744 mmHg 33%
    17:00 +34°C° 0 mm 3 mps 744 mmHg 35%
    18:00 +32°C° 0 mm 2 mps 744 mmHg 37%
    19:00 +30°C° 0.1 mm 2 mps 744 mmHg 40%
    20:00 +29°C° 0.1 mm 2 mps 744 mmHg 43%
    21:00 +27°C° 0.1 mm 3 mps 744 mmHg 47%
    22:00 +26°C° 0.1 mm 2 mps 744 mmHg 50%
    23:00 +26°C° 0.1 mm 2 mps 744 mmHg 54%

    Tomorrow, 18 August, Saturday

    Time Temperature Precipitation Wind Pressure Humidity
    00:00 +25°C° 0.1 mm 1 mps 744 mmHg 58%
    01:00 +24°C° 0.1 mm 1 mps 744 mmHg 60%
    02:00 +24°C° 0.1 mm 1 mps 744 mmHg 62%
    03:00 +23°C° 0.1 mm 1 mps 744 mmHg 64%
    04:00 +23°C° 0 mm 1 mps 744 mmHg 64%
    05:00 +23°C° 0 mm 1 mps 744 mmHg 64%
    06:00 +23°C° 0 mm 1 mps 744 mmHg 64%
    07:00 +25°C° 0 mm 1 mps 744 mmHg 57%
    08:00 +27°C° 0 mm 1 mps 744 mmHg 51%
    09:00 +29°C° 0 mm 1 mps 745 mmHg 44%
    10:00 +30°C° 0 mm 2 mps 744 mmHg 40%
    11:00 +33°C° 0 mm 3 mps 744 mmHg 35%
    12:00 +34°C° 0 mm 4 mps 744 mmHg 30%
    13:00 +34°C° 0 mm 4 mps 744 mmHg 28%
    14:00 +35°C° 0 mm 4 mps 744 mmHg 26%
    15:00 +35°C° 0 mm 4 mps 744 mmHg 24%
    16:00 +35°C° 0 mm 3 mps 744 mmHg 26%
    17:00 +34°C° 0 mm 3 mps 744 mmHg 29%
    18:00 +32°C° 0 mm 2 mps 744 mmHg 31%
    19:00 +30°C° 0 mm 2 mps 744 mmHg 33%
    20:00 +29°C° 0 mm 2 mps 744 mmHg 35%
    21:00 +27°C° 0 mm 3 mps 745 mmHg 37%
    22:00 +26°C° 0 mm 3 mps 745 mmHg 42%
    23:00 +26°C° 0 mm 3 mps 745 mmHg 46%

    Day after tomorrow, 19 August, Sunday

    Time Temperature Precipitation Wind Pressure Humidity
    00:00 +25°C° 0 mm 3 mps 745 mmHg 51%
    01:00 +25°C° 0 mm 3 mps 745 mmHg 51%
    02:00 +24°C° 0 mm 3 mps 745 mmHg 52%
    03:00 +24°C° 0 mm 3 mps 745 mmHg 52%
    04:00 +24°C° 0 mm 3 mps 745 mmHg 54%
    05:00 +22°C° 0 mm 3 mps 745 mmHg 55%
    06:00 +22°C° 0 mm 4 mps 746 mmHg 56%
    07:00 +23°C° 0 mm 4 mps 746 mmHg 51%
    08:00 +26°C° 0 mm 5 mps 746 mmHg 47%
    09:00 +27°C° 0 mm 6 mps 746 mmHg 43%
    10:00 +28°C° 0 mm 6 mps 746 mmHg 40%
    11:00 +29°C° 0 mm 6 mps 746 mmHg 38%
    12:00 +30°C° 0 mm 6 mps 746 mmHg 35%
    13:00 +32°C° 0 mm 6 mps 746 mmHg 34%
    14:00 +32°C° 0 mm 6 mps 746 mmHg 33%
    15:00 +32°C° 0 mm 6 mps 745 mmHg 32%
    16:00 +30°C° 0 mm 5 mps 746 mmHg 33%
    17:00 +29°C° 0 mm 5 mps 746 mmHg 35%
    18:00 +28°C° 0 mm 5 mps 746 mmHg 37%
    19:00 +27°C° 0 mm 4 mps 746 mmHg 37%
    20:00 +25°C° 0 mm 4 mps 747 mmHg 37%
    21:00 +23°C° 0 mm 4 mps 747 mmHg 38%
    22:00 +22°C° 0 mm 4 mps 747 mmHg 39%
    23:00 +21°C° 0 mm 3 mps 747 mmHg 40%

    20 August, Monday

    Time Temperature Precipitation Wind Pressure Humidity
    00:00 +21°C° 0 mm 3 mps 747 mmHg 42%
    01:00 +20°C° 0 mm 3 mps 747 mmHg 44%
    02:00 +20°C° 0 mm 3 mps 747 mmHg 46%
    03:00 +19°C° 0 mm 3 mps 747 mmHg 48%
    04:00 +19°C° 0 mm 3 mps 747 mmHg 51%
    05:00 +19°C° 0 mm 3 mps 747 mmHg 54%
    06:00 +18°C° 0 mm 3 mps 747 mmHg 56%
    07:00 +20°C° 0 mm 4 mps 747 mmHg 52%
    08:00 +22°C° 0 mm 5 mps 747 mmHg 47%
    09:00 +24°C° 0 mm 6 mps 747 mmHg 42%
    10:00 +26°C° 0 mm 6 mps 747 mmHg 40%
    11:00 +27°C° 0 mm 6 mps 747 mmHg 38%
    12:00 +28°C° 0 mm 6 mps 746 mmHg 36%
    13:00 +29°C° 0 mm 7 mps 746 mmHg 36%
    14:00 +29°C° 0 mm 7 mps 746 mmHg 36%
    15:00 +30°C° 0 mm 7 mps 746 mmHg 36%
    16:00 +29°C° 0 mm 7 mps 746 mmHg 40%
    17:00 +28°C° 0 mm 6 mps 747 mmHg 44%
    18:00 +27°C° 0 mm 6 mps 747 mmHg 47%
    19:00 +26°C° 0 mm 6 mps 747 mmHg 49%
    20:00 +24°C° 0 mm 6 mps 747 mmHg 51%
    21:00 +23°C° 0 mm 6 mps 748 mmHg 53%
    22:00 +22°C° 0 mm 5 mps 748 mmHg 57%
    23:00 +21°C° 0 mm 4 mps 748 mmHg 60%

    21 August, Tuesday

    Time Temperature Precipitation Wind Pressure Humidity
    00:00 +20°C° 0 mm 4 mps 747 mmHg 64%
    01:00 +20°C° 0 mm 3 mps 747 mmHg 66%
    02:00 +19°C° 0 mm 3 mps 747 mmHg 68%
    03:00 +19°C° 0 mm 3 mps 747 mmHg 70%
    04:00 +19°C° 0 mm 3 mps 747 mmHg 71%
    05:00 +19°C° 0 mm 3 mps 747 mmHg 73%
    06:00 +19°C° 0 mm 3 mps 748 mmHg 74%
    07:00 +21°C° 0 mm 3 mps 748 mmHg 67%
    08:00 +23°C° 0 mm 4 mps 748 mmHg 59%
    09:00 +26°C° 0 mm 5 mps 748 mmHg 52%
    10:00 +27°C° 0 mm 5 mps 748 mmHg 47%
    11:00 +29°C° 0 mm 5 mps 748 mmHg 42%
    12:00 +30°C° 0 mm 5 mps 747 mmHg 37%
    13:00 +32°C° 0 mm 5 mps 747 mmHg 36%
    14:00 +32°C° 0 mm 5 mps 747 mmHg 35%
    15:00 +33°C° 0 mm 5 mps 747 mmHg 33%
    16:00 +32°C° 0 mm 5 mps 747 mmHg 36%
    17:00 +30°C° 0 mm 4 mps 747 mmHg 38%
    18:00 +30°C° 0 mm 4 mps 747 mmHg 41%
    19:00 +28°C° 0 mm 4 mps 748 mmHg 44%
    20:00 +27°C° 0 mm 5 mps 748 mmHg 46%
    21:00 +25°C° 0 mm 5 mps 748 mmHg 49%
    22:00 +23°C° 0 mm 4 mps 748 mmHg 52%
    23:00 +23°C° 0 mm 4 mps 748 mmHg 54%

    22 August, Wednesday

    Time Temperature Precipitation Wind Pressure Humidity
    00:00 +22°C° 0 mm 3 mps 748 mmHg 57%
    01:00 +21°C° 0 mm 3 mps 748 mmHg 59%
    02:00 +21°C° 0 mm 3 mps 748 mmHg 62%
    03:00 +20°C° 0 mm 2 mps 748 mmHg 64%
    04:00 +20°C° 0 mm 2 mps 748 mmHg 65%
    05:00 +20°C° 0 mm 2 mps 749 mmHg 67%
    06:00 +20°C° 0 mm 2 mps 749 mmHg 68%
    07:00 +23°C° 0 mm 2 mps 749 mmHg 62%
    08:00 +25°C° 0 mm 2 mps 749 mmHg 55%
    09:00 +27°C° 0 mm 3 mps 749 mmHg 49%
    10:00 +28°C° 0 mm 3 mps 749 mmHg 44%
    11:00 +29°C° 0 mm 3 mps 748 mmHg 39%
    12:00 +32°C° 0 mm 4 mps 748 mmHg 35%
    13:00 +32°C° 0 mm 4 mps 748 mmHg 33%
    14:00 +33°C° 0 mm 4 mps 748 mmHg 32%
    15:00 +34°C° 0 mm 4 mps 748 mmHg 30%
    16:00 +33°C° 0 mm 3 mps 748 mmHg 33%
    17:00 +31°C° 0 mm 3 mps 748 mmHg 35%
    18:00 +31°C° 0 mm 2 mps 748 mmHg 37%
    19:00 +29°C° 0 mm 2 mps 748 mmHg 38%
    20:00 +28°C° 0 mm 3 mps 748 mmHg 40%
    21:00 +26°C° 0 mm 3 mps 749 mmHg 42%
    22:00 +25°C° 0 mm 3 mps 749 mmHg 47%
    23:00 +25°C° 0 mm 2 mps 748 mmHg 51%
    Show more